Погода в Ждаре над Сазавоу

Чехия     49°33′48″N   15°56′22″E
темп.,
°C
ветер,
м/с
пор.,
м/с
влажн.,
%
обл.,
%
осадки,
мм/ч
давл.,
гПа
погр.,
м
31 июля, сб
сб3123:00+18сз1180100 0.0 100911
02:00+18з1179100 0.0 100911
05:00+17з61482100 0.0 1009413
08:00+17зсз5128493 0.0 1010471
11:00+21зсз676699 0.0 10111132
14:00+22зсз685498 0.0 10101366
17:00+22з465892 0.0 10111030
20:00+19юз2276100 0.0 101011
1 августа, вс
вс123:00+16сз228686 0.0 101126
02:00+15с2272100 0.0 101112
05:00+16св2265100 0.1 100941
08:00+14с2393100 2.0 1009210
11:00+13ссв5996100 1.9 1008374
14:00+13сз5997100 7.3 1009492
17:00+14ссз6118920 0.7 1009706
20:00+13сз379156 0.8 1010351
2 августа, пн
пн223:00+11зсз279798 0.0 1011190
02:00+12зсз51090100 0.0 1011354
05:00+12зсз4998100 0.8 1012328
08:00+12зсз3896100 2.6 1013327
11:00+17з567132 0.7 1014910
14:00+20з676049 1.4 10131748
17:00+19з366798 0.7 10131330
20:00+15сз11791 0.9 101414
3 августа, вт
вт323:00+12зсз22890 0.0 101612
02:00+11зсз22930 0.0 101715
05:00+10з119333 0.0 101710
08:00+14зюз12825 0.0 1018219
11:00+19зюз34634 0.0 10171144
14:00+21юз355288 0.7 10151892
17:00+22з2449100 0.0 10141710
20:00+16зсз00825 2.1 101411
4 августа, ср
ср423:00+13зсз129162 2.1 101512
02:00+12зсз12885 2.3 101511
05:00+12сз0187100 0.0 101410
08:00+15зюз1179100 0.0 1015111
11:00+18ю1169100 0.0 1014476
14:00+21ююз1158100 0.1 10131194
17:00+17с5786100 1.6 1014451
20:00+14ссз1292100 2.5 101335